Location: Antioch Baptist Church
(32.6696°N, 85.7327°W)
Time: 12:27:05
(UTC+00:00)

Cosmos 1953 Rocket - Pass Details

Date: 14 July 2020
Orbit: 605 x 634 km, 82.5° (Epoch: 08 August)

Event Time Altitude Azimuth Distance (km) Brightness Sun altitude
Rises 01:23:19 0° 166° (SSE) 2,844 6.5 -6.6°
Reaches altitude 10° 01:25:39 10° 157° (SSE) 1,944 5.6 -7.0°
Maximum altitude 01:29:34 35° 91° (E) 982 4.2 -7.7°
Drops below altitude 10° 01:33:31 10° 26° (NNE) 1,960 6.2 -8.4°
Sets 01:35:52 0° 17° (NNE) 2,871 7.2 -8.8°
